Showing default

HJS-6D, 63431

Orbit data source: Space-Track

HJS-6D, 63431 is a payload satellite owned by Zhongguo Xingwang (CN) in LEO that was launched on Tue, 01 Apr 2025 UTC via a CHANG ZHENG 2D launch vehicle from the Jiuquan Satellite Launch Center, China (JSC). Payload-class satellites include a variety of spacecraft equipped with specific instruments for various scientific and technological missions. These include communications satellites like Starlink; space stations such as the ISS; scientific satellites like the Hubble; Earth observation satellites from companies like Planet Labs, Umbra, and HawkEye 360; GPS; miniature CubeSats for education and research; and military/defense satellites.

Loading next visibility...
Identifier
63431, 2025-067D
Orbit
LEO
Country
Flag of CNCN / PRC
Related business
Manufacturer
Changguang WJ
Mission
Operational Civil Communications
Bus & Motor
Unknown
Mass
~300 kg wet, ~300 kg dry
Launch date (UTC)
2025-04-01 (1 year ago)
Launch vehicle
CHANG ZHENG 2D
Launch site
Jiuquan Satellite Launch Center, China (JSC)
Object type
Payload
Rocket body
Debris
Shape & HBR
Box + 2 Pan, 1.1 m
Radar Cross Section
2.320 m², Large (>1 m²)

Expand to show TLE details & history
Last TLE update: 18 hours ago

TLE from 18 hours ago
0 HJS-6D
1 63431U 25067D   26171.09584017  .00000163  00000-0  22067-4 0  9999
2 63431  54.9972  14.9157 0005868  14.6679 345.4510 15.20006244 68372
Epoch: 2026-06-20T02:18Z
TLE epoch observation values (Epoch: 2026-06-20T02:18:00.590Z)
Latitude
-0.00003°
Longitude
72.09784°
Altitude
503.002 km
Speed
7.616 km/s
True Right ascension
00h 59m 39s
True Declination
0° 00' 00"
Sunlit
Object was in daylight at epoch
Visualization orbit readout
Latitude
Unknown
Longitude
Unknown
Altitude
Unknown
Speed
Unknown
Apparent Right ascension
Unknown
Apparent Declination
Unknown
Sunlit
N/A
Visualization observer readout
Local Sidereal Time
07:24:20
Azimuth
Unknown
Elevation
Unknown
Doppler factor
Unknown
Orbital elements
Apogee altitude
509.824 km
Perigee altitude
501.745 km
Semi-major axis
6,883.922 km
Eccentricity
0.00059
Inclination
54.9972°
RAAN
14.9157°
Arg. of periapsis
14.6679°
True anomaly
345.4341°
Mean anomaly
345.451°
Eccentric anomaly
345.44255°
Mean motion
3.80005 °/min
Orbital period
94.74 mins
BSTAR
0.000022067
Loading maneuver chart data...
Computing Atmospheric mass density...
Loading historical data...
Loading historical data...
Loading historical data...
Loading historical data...
Loading historical data...
Loading historical data...
Loading historical data...
Other satellites on launch #67 in the year 2025 (2025-04-01 UTC)

Documentation

Showing up to 5 results
|